Zurück zum Katalog

DELTA 1 DEB

AktivPO
NORAD 21452·DEBRIS·🇺🇸 United States

Gestartet Jun 12, 1975 von Vandenberg Space Force Base

Loading…

Nächste Überflüge (nächste 24 Stunden)

TLE

AktuellSource: Space-Track

Epoche: Sep 14, 2026, 10:43 UTC

1 21452U 75052EL  26257.44694769  .00001947  00000-0  82755-2 0  9994
2 21452  99.7488 124.8484 0580284  88.8236  31.4650 12.39714095585877

Verfolge DELTA 1 DEB in Echtzeit mit AllMySat

Download on the App Store